CAPE
2021 2318 2486 2877 2774 2213 2798 2514 2316 2263 1696 1899 2039 2083 1766 1554 1799 1815 1720 1238 662 1062 1130 819 1411 1063 555 272 1074 1451 679 1457 1283 386 757 826 697 1158 840 663 1362 763 1063
2508 2803 2939 2731 2179 2016 2352 2704 2398 2453 2275 2509 2414 2574 2477 1885 1834 2287 1778 1674 988 455 738 877 703 1501 1288 1246 971 987 988 1183 643 1049 863 730 848 767 815 1347 964 833 922
2814 3175 2942 2370 2033 2109 2418 2432 2416 2416 2723 2743 2304 2453 2137 2193 1886 1911 2032 1659 1166 816 460 486 1031 887 787 537 626 719 955 623 484 1112 656 429 191 821 1001 326 545 603 819
2991 3421 3107 2516 2265 2257 2153 2604 2514 2596 3135 3230 2275 2259 2230 1826 2013 1657 1911 1687 908 996 599 543 690 800 669 356 156 70 110 282 375 803 640 724 537 179 37 72 10 342 673
2264 3245 3413 2923 2490 2370 2182 2222 2515 2916 3388 3433 3208 2493 1973 1783 1802 1558 2075 1866 1615 912 764 355 681 634 670 446 441 412 615 426 612 569 626 594 473 153 95 41 61 97 10
2235 3161 3377 3458 3005 2338 2300 2061 2573 2662 3390 3304 2948 2709 2281 2090 1835 1675 1670 1731 1680 1184 853 481 393 224 158 30 224 347 244 392 717 703 110 51 165 138 103 152 293 188 3
2244 3060 3571 3578 3412 2506 2465 2378 2601 2677 3146 3055 2581 2813 2407 2437 1978 1530 1360 1725 1253 1855 1093 640 477 345 328 494 198 507 542 505 597 277 162 102 57 111 482 353 449 189 5
2322 2924 3398 3224 2856 2529 2741 2768 3109 3090 3040 2951 3103 3239 2995 2201 1951 1781 2321 1381 1061 1139 1254 1228 1634 1258 1100 921 849 685 531 571 639 958 947 791 1260 1107 735 585 432 148 5
2238 2696 3299 3029 2684 2719 2937 2968 3159 3264 3093 3010 3485 3347 3216 2767 2143 2012 2495 2228 1575 1253 1445 1461 1287 1110 1599 819 847 662 422 257 277 303 240 496 698 831 492 397 461 103 2
2072 2554 2398 2053 2401 2847 3117 3262 3354 3424 3332 3366 3139 3369 3144 2802 2717 3013 2728 2189 2215 1637 1435 906 1231 1296 1406 1090 876 826 677 574 430 402 412 494 663 1036 1289 1072 860 438 218
1786 1921 1260 2255 2502 2350 2753 3111 3285 3545 3609 3650 3249 3297 2953 2818 2935 2846 2383 1898 2010 1758 1335 639 1210 1093 1231 1129 1175 937 818 549 716 733 506 547 760 779 1322 1127 807 559 242
1359 1549 1638 2166 2532 2394 2724 3151 3260 3539 3608 3540 3505 3225 2942 2846 2881 2725 2443 2384 2215 1681 1674 1379 1009 978 1144 1090 468 398 587 454 427 276 501 571 662 701 594 525 587 517 235
2228 1846 1458 2934 2780 2864 3018 3141 3320 3542 3528 3606 3290 3028 2751 2989 2770 2829 2497 2472 2012 1861 1493 1483 1247 1077 1100 648 617 434 495 492 506 263 241 585 593 604 716 702 838 504 39
2328 2196 3207 3707 3896 3806 3290 3112 3268 3207 3483 3364 3589 3491 3108 2904 2705 2678 2669 2240 2188 2114 1101 1154 1044 818 899 726 734 330 157 426 429 162 258 472 669 762 894 949 667 331 92
2195 3556 4106 4465 4363 4144 3709 3322 3386 3317 3658 3859 3567 3662 3143 3098 2596 2691 2661 2377 2118 1707 1591 1252 1112 1021 633 50 330 266 226 334 405 232 293 112 3 0 0 261 582 342 8
2424 3202 4252 4503 4482 4263 3832 3708 3701 3732 4163 3979 3858 3807 3742 2798 2473 2475 2698 2554 2283 2262 2091 1711 1159 1211 1333 0 0 0 14 158 264 121 190 5 0 0 0 0 0 250 75
2066 2566 2821 3803 5304 4879 4411 4167 4077 4410 4290 4100 3615 3679 3650 3472 3200 2819 2709 2469 2438 2655 2442 2111 1393 1190 1204 0 0 0 0 0 89 138 225 139 97 77 8 0 0 0 0
3051 3056 2364 3004 3892 4206 4894 4649 4357 4417 4431 4270 3620 3610 3541 3084 2806 2612 2703 2774 2870 2725 2550 2209 1974 1701 29 0 0 0 0 0 19 69 254 160 141 38 209 149 126 61 11
2866 3479 3206 2668 3190 3423 4050 4765 4344 3855 3964 4254 3979 3274 3412 3047 2774 2830 2889 2892 3049 2684 2268 2186 1966 1889 225 0 0 0 0 0 0 14 32 131 190 0 0 83 246 104 0
2371 2547 3215 3396 3639 4599 3941 3431 4611 4266 4028 3995 3276 3006 3277 3072 2917 2806 2979 3065 2703 2414 1881 1951 1637 1032 805 0 0 0 0 0 3 4 60 9 0 0 0 14 124 196 183
1775 2075 2207 3018 3998 4225 4587 4561 4670 3831 4363 3899 2953 2335 2640 3183 2903 2800 2829 2758 2533 2220 2317 1739 1631 1457 1038 0 0 0 0 0 9 3 0 30 0 0 0 0 18 0 0
1441 1771 2183 2594 2944 3347 3828 3624 3402 3242 3339 2882 2487 1636 2317 2599 2610 2535 2368 2461 2350 2257 1899 1680 1434 1117 787 4 0 0 0 0 16 122 0 0 0 0 0 0 0 0 0
1192 1386 1461 1801 2563 3193 3500 3742 1964 655 262 0 0 649 1468 2196 2758 2550 2237 2126 2094 1771 1604 1294 911 1412 1262 75 0 0 0 0 0 1 0 0 0 0 0 0 0 0 0
999 1019 1403 1946 2091 2661 3133 2502 913 1011 1 0 1 534 946 2081 2317 1544 1900 1371 1179 1326 1534 1278 843 1272 1543 1198 19 0 0 1 0 0 0 0 0 0 0 0 0 0 0
49 12 76 454 1258 1531 2594 1901 1828 890 76 273 648 872 1337 1288 1295 1463 1033 1201 0 670 1131 1027 622 592 113 0 0 57 0 0 0 0 185 178 3 1 1 0 0 0 0
12 11 8 7 9 290 417 532 1573 1650 1213 1095 819 1053 1114 998 980 924 158 0 0 0 0 0 9 0 0 1 1 1 1 1 1 2 3 3 4 0 5 12 5 1 0
CIN
-3 -12 -17 -2 -14 -50 -11 -23 -13 -9 -18 -2 -1 -5 -12 -16 -5 -3 -9 -13 -23 -5 0 -13 -1 -13 -56 -98 -23 -8 -38 -11 -19 -94 -37 -46 -52 -11 -34 -40 -41 -71 -114
-7 -14 -17 -23 -53 -71 -45 -12 -22 -2 -2 -1 -5 -5 -12 -4 -1 -1 -1 0 -5 -23 -5 -1 -9 -2 -4 -7 -26 -14 -18 -12 -46 -8 -14 -13 -23 -22 -39 -32 -35 -32 -37
-13 -25 -48 -69 -67 -64 -47 -28 -28 -8 -3 -7 -13 -6 -9 -5 -1 -1 0 -1 -1 -11 -18 -6 -2 -1 -6 -14 -28 -25 -13 -19 -53 -12 -17 -8 -20 -15 -25 -35 -19 -30 -25
-13 -44 -55 -82 -61 -51 -63 -28 -28 -10 -1 -3 -7 -7 -11 -9 -7 -8 -5 -2 -1 -1 -16 -6 -1 0 -4 -24 -55 -78 -59 -34 -23 -18 -36 -16 -18 -13 -31 -37 -10 -24 -8
-11 -27 -17 -63 -55 -33 -72 -64 -34 -2 -2 -3 -8 -6 -7 -19 -6 -13 -6 -1 -1 0 0 -18 -6 -8 -3 -16 -15 -20 -17 -23 -13 -15 -15 -17 -10 -24 -2 -5 -10 -13 -78
-15 -14 -10 -14 -26 -42 -47 -73 -32 -8 -1 -2 -4 -2 -2 -2 0 -9 -11 -4 -2 -1 -11 -16 -23 -48 -56 -96 -34 -26 -31 -12 -11 -13 -54 -67 -29 -37 -17 -5 -4 -13 0
-25 -12 -5 -9 -14 -49 -34 -38 -53 -31 0 -1 -14 -1 -1 0 0 -7 -17 -13 -34 -4 -12 -42 -42 -40 -35 -21 -36 -16 -20 -11 -7 -33 -51 -55 -76 -68 -16 -13 -7 -2 0
-38 -14 -26 -44 -63 -59 -29 -13 -26 -19 -1 -1 -1 -1 -1 -2 -1 -11 -8 -21 -52 -33 -8 -10 -3 -5 -6 -3 -5 -8 -9 -10 -4 -2 -3 -11 -6 -7 -13 -15 -13 -2 0
-48 -44 -17 -59 -72 -51 -34 -15 -32 -3 -2 -1 -1 -1 -1 -1 0 -3 -6 -17 -12 -35 -15 -19 -25 -13 -3 -13 -11 -20 -32 -45 -11 -34 -37 -25 -26 -23 -52 -34 -6 -29 0
-45 -40 -55 -79 -76 -51 -29 -9 -24 -4 -2 -2 -18 -1 0 -1 -1 -1 -4 -3 -6 -10 -1 -1 -3 -9 -2 -7 -11 -8 -11 -16 -43 -38 -24 -18 -21 -22 -8 -7 -10 -16 -14
-50 -50 -74 -76 -70 -68 -37 -11 -30 -4 -1 -1 -23 -8 -2 -2 -1 -2 -2 -1 0 -1 0 -3 -4 -3 -4 -11 -12 -10 -15 -18 -10 -10 -12 -10 -8 -20 -5 -9 -13 -14 -14
-43 -56 -65 -68 -45 -50 -30 -22 -33 -13 -3 -2 -19 -18 -9 -2 -1 -1 -2 -1 -1 0 0 -2 -3 -3 -6 -11 -7 -6 -4 -12 -10 -10 -7 -13 -13 -6 -20 -21 -31 -11 -26
-6 -17 -58 -13 -22 -20 -20 -38 -24 -8 -7 -2 -12 -19 -21 -4 -7 -6 -3 -2 -1 -1 -1 -1 -1 -7 -2 -8 -4 -2 -7 -3 -3 -23 -13 -6 -12 -10 -5 -7 -6 -11 -77
-15 -32 -9 -14 -6 -15 -30 -34 -18 -7 -6 -11 -10 -8 -17 -17 -11 -11 -5 -6 -2 -1 -13 -8 -7 -7 -8 -2 -2 -3 -3 -2 -4 -8 -12 -4 -9 -12 -6 -1 -6 -14 -21
-18 -3 -4 -11 -6 -11 -18 -29 -9 -4 -10 -20 -15 -6 -32 -23 -32 -9 -3 -8 -7 -7 -20 -19 -11 -6 -18 -8 -40 -3 -2 -4 -6 -15 -17 -59 -5 0 0 -26 -4 -6 -6
-1 -3 -1 -4 -4 -4 -9 -5 -2 -3 -25 -25 -15 -8 -5 -32 -32 -21 -4 -5 -5 -2 -3 -7 -23 -7 -4 0 0 0 -70 -47 -12 -8 -8 -45 0 0 0 0 0 -6 -27
-23 -5 -2 -1 -5 -5 -9 -3 -5 -5 -6 -7 -11 -10 -6 -8 -13 -9 -4 -3 -8 -4 -2 -4 -13 -14 -3 0 0 0 0 0 -58 -11 -8 -4 -24 -49 -17 0 0 0 0
-42 -64 -82 -42 -3 -2 -8 -9 -7 -9 -5 -10 -18 -11 -8 -12 -23 -13 -6 -7 -5 -3 -5 -4 -4 -6 -79 0 0 0 0 0 -71 -40 -8 -8 -11 -24 -18 -21 -16 -30 -10
-63 -32 -66 -76 -49 -11 -5 -17 -15 -47 -22 -8 -14 -20 -7 -7 -11 -5 -5 -6 -4 -4 -6 -4 -7 -1 -99 0 0 0 0 0 0 -53 -15 -47 -35 -1 0 -41 -13 -17 -13
-77 -99 -52 -34 -10 -6 -9 -26 -35 -76 -49 -16 -19 -14 -11 -10 -4 -6 -5 -7 -3 -9 -1 -1 -1 -7 -28 0 0 0 0 0 -97 -44 -17 -64 0 0 0 -35 -22 -12 -11
-132 -128 -139 -51 -14 -32 -16 -10 -16 -30 -27 -40 -46 -29 -10 -7 -8 -11 -15 -4 -2 -3 -1 -1 -2 -1 -1 0 0 0 0 0 -54 -74 0 -36 0 0 0 0 -60 0 0
-172 -147 -92 -77 -50 -24 -13 -25 -26 -34 -40 -34 -32 -29 -8 -5 -4 -5 -5 -1 -2 -1 -1 0 -2 -5 -27 -63 0 0 0 0 -13 -3 0 0 0 0 0 0 0 0 0
-168 -141 -147 -135 -37 -1 -6 0 -123 -358 -416 0 0 -30 -15 -13 -12 -6 -3 -1 -2 -2 -2 -5 -14 -7 -2 -93 0 0 0 0 0 -2 0 0 0 0 0 0 0 0 0
-146 -159 -127 -70 -44 0 -4 -1 -231 -169 -98 0 -79 -1 -13 -6 -12 -23 -9 -9 -5 -11 -3 -5 -19 -12 -3 -2 -17 0 0 0 0 0 0 0 0 0 0 0 0 0 0
-318 -89 -188 -209 -59 -19 -2 -9 -2 -101 -121 -175 -44 -2 -33 -41 -9 -10 -24 -1 0 -5 -5 -5 -28 -32 -147 0 0 -42 0 0 0 0 -8 -3 -6 -6 -4 0 0 0 0
-1 0 0 0 -1 -127 -196 -145 -4 -3 -4 -9 -16 -5 -7 -22 -15 -13 -103 0 0 0 0 0 -171 0 0 0 0 0 0 0 0 0 -7 -47 -41 0 -29 -23 -5 -4 0
Wind_Speed
17 16 15 13 10 10 12 11 9 10 5 5 5 6 7 6 4 3 6 6 7 9 8 5 3 4 4 5 3 3 6 4 1 4 5 4 6 6 3 5 2 7 4
18 17 15 12 10 10 11 10 10 10 8 6 5 1 2 3 1 1 3 5 7 8 8 8 7 6 4 3 3 4 4 2 3 3 1 2 4 2 4 3 2 3 5
19 18 16 12 11 12 12 10 10 11 10 5 6 2 1 2 3 3 3 3 4 5 9 8 6 4 3 3 4 3 5 5 3 4 3 2 4 2 2 5 5 4 2
19 18 18 13 12 12 11 12 11 12 9 8 8 9 4 3 2 2 4 4 2 3 4 6 8 6 4 5 4 4 5 5 6 3 5 4 2 0 3 4 7 4 5
18 20 18 15 13 12 12 11 10 9 8 7 5 4 3 4 4 2 4 2 4 3 5 3 4 5 4 4 5 6 8 6 6 6 2 4 1 1 2 2 4 1 4
15 18 17 17 13 11 12 12 10 8 7 8 6 4 4 2 1 3 2 4 4 4 5 5 3 3 3 3 3 4 1 4 5 4 3 3 3 4 3 6 4 2 3
13 15 15 14 13 12 11 11 12 10 9 9 8 7 4 3 3 3 4 4 4 3 6 6 5 4 4 3 3 4 3 4 3 3 3 4 5 3 4 5 2 2 1
12 14 16 13 13 13 12 11 13 11 9 8 7 6 5 4 4 5 4 3 4 4 6 6 5 5 6 5 4 3 3 2 4 5 5 4 4 4 5 5 4 2 2
14 15 18 17 14 13 12 11 12 9 9 9 7 7 6 5 4 2 2 4 3 6 9 9 8 6 6 5 5 3 2 3 4 5 5 5 4 3 3 2 4 4 3
15 15 14 13 14 14 12 11 13 11 12 11 10 8 8 7 6 5 6 2 4 4 2 2 3 6 5 4 4 3 4 4 4 4 5 5 4 5 3 4 4 4 3
16 14 13 14 16 16 14 12 13 11 10 8 8 9 8 9 7 6 5 3 3 3 1 2 1 2 4 5 5 6 6 6 6 4 5 5 5 4 3 3 4 5 4
15 15 15 16 15 16 14 12 12 12 11 8 8 8 7 7 7 6 6 4 4 3 4 3 4 2 3 4 3 3 4 5 4 3 3 5 3 2 4 4 5 5 5
12 11 12 12 12 13 13 13 12 12 12 10 7 9 8 9 8 7 8 7 5 6 5 4 3 4 4 2 2 1 5 3 3 3 2 4 5 3 2 3 3 4 6
8 11 9 9 7 9 12 12 13 13 14 12 10 10 12 10 10 9 8 8 7 7 5 4 3 0 2 2 3 2 1 4 4 2 2 4 4 5 4 3 2 7 6
9 10 9 8 7 8 9 11 12 12 14 13 12 10 13 11 7 8 7 7 6 6 6 6 3 3 2 4 4 2 3 4 5 2 3 6 6 6 7 4 3 6 6
7 6 9 10 9 9 8 10 10 11 13 13 10 9 9 13 9 7 7 7 7 4 3 4 6 3 2 5 5 3 3 8 4 3 2 6 9 7 6 6 11 3 7
7 4 3 7 8 10 11 11 10 9 9 12 11 10 9 8 8 8 7 7 7 6 5 5 3 4 5 9 4 4 3 4 5 3 3 3 5 7 7 4 6 7 6
7 7 7 9 5 9 12 12 11 11 11 11 12 12 13 12 10 10 9 7 6 5 5 5 4 5 5 10 6 2 2 3 6 6 5 2 3 4 5 6 6 6 4
6 7 9 7 8 7 6 10 12 11 12 12 10 12 13 12 12 12 10 8 6 5 4 3 3 4 7 9 7 4 1 1 3 5 3 6 6 4 5 3 6 5 4
8 7 11 9 8 6 7 8 8 10 12 13 12 13 14 13 13 10 9 8 6 6 5 5 4 6 6 10 10 6 2 1 3 5 3 3 4 1 6 5 6 5 5
9 8 9 10 11 11 12 9 7 10 8 9 11 14 14 11 11 10 8 7 7 8 5 6 4 5 5 8 10 10 5 3 1 1 3 3 7 5 2 3 3 3 6
12 12 8 7 9 10 10 11 10 8 6 9 14 13 15 11 9 8 8 8 7 5 7 5 4 6 7 10 8 9 7 4 3 2 1 3 9 7 6 4 1 4 6
12 12 12 10 8 9 8 9 6 4 11 17 27 11 10 7 8 7 6 5 4 5 7 7 4 3 5 6 11 10 7 5 3 4 6 6 6 7 5 7 5 2 3
14 16 17 15 12 10 7 8 4 1 13 14 8 4 7 8 5 5 6 4 7 7 2 2 3 4 4 6 6 6 5 7 5 6 6 8 8 7 4 2 4 4 4
13 15 16 15 16 17 7 5 3 6 8 9 11 9 5 5 6 4 2 4 4 2 4 3 3 3 7 3 5 5 4 2 3 3 2 1 4 4 5 5 6 4 4
11 12 14 15 15 17 16 14 3 4 5 5 6 6 6 5 4 6 4 8 3 5 8 7 8 6 11 10 9 9 8 5 2 2 2 2 2 3 3 3 4 2 6
Wind_Direction
164 150 152 152 149 145 153 157 175 150 167 189 205 208 193 200 189 208 217 226 216 204 197 206 241 204 237 265 316 230 253 254 206 28 276 249 200 238 268 262 193 163 60
155 149 149 150 163 153 156 163 166 162 200 182 214 4 344 82 112 204 202 234 227 205 209 199 204 214 215 228 252 244 241 254 228 227 188 281 297 310 307 335 7 277 165
155 150 153 165 175 160 161 171 168 163 214 219 119 136 104 7 206 197 191 178 206 199 196 205 192 181 217 232 234 234 208 234 272 213 188 201 227 345 357 360 318 40 25
152 153 155 166 181 163 166 162 171 179 197 182 164 188 196 190 196 199 145 158 174 138 196 185 187 196 187 204 220 231 240 252 248 254 223 235 131 139 337 28 331 322 58
161 158 156 164 184 167 164 161 174 190 187 163 262 162 200 168 154 106 138 127 144 183 150 157 195 193 195 215 241 261 237 224 225 216 196 206 151 82 226 234 227 178 50
158 152 154 160 176 178 164 163 165 188 203 167 201 207 170 138 136 143 229 162 165 169 176 177 177 187 199 229 266 278 330 303 248 232 167 175 171 186 185 231 228 200 64
153 147 154 155 168 177 170 164 158 183 203 185 176 205 202 141 195 199 216 155 202 187 184 175 178 189 210 231 251 268 239 205 234 193 198 203 215 202 229 228 228 140 146
156 151 151 162 173 180 176 176 158 175 194 177 203 158 197 194 185 214 267 239 200 188 172 187 181 203 187 212 229 210 221 238 247 240 222 221 223 227 227 232 197 131 124
164 169 164 165 172 171 178 173 154 175 180 184 184 174 187 214 199 185 293 275 117 173 178 192 182 192 198 201 190 216 204 170 265 266 260 244 255 244 229 246 222 161 157
166 166 169 160 163 170 175 170 154 176 180 191 166 172 187 190 192 170 207 276 86 60 0 8 59 160 172 189 210 232 213 228 238 244 234 242 246 213 222 211 215 195 175
169 168 162 159 167 173 172 166 156 170 177 192 159 159 176 187 173 206 155 154 167 164 214 223 309 134 175 184 197 211 200 222 228 253 272 261 254 260 229 228 224 192 177
167 164 166 169 175 171 166 157 158 163 175 196 156 160 163 168 178 189 161 192 145 171 236 179 194 201 249 234 232 266 306 210 202 256 251 271 318 247 258 246 230 168 162
179 155 168 161 175 164 154 155 164 171 176 177 165 162 167 174 191 198 169 164 172 179 202 197 156 212 262 357 196 177 332 333 268 232 37 305 281 314 317 297 239 145 113
158 148 158 145 167 145 149 163 179 181 169 173 187 181 168 180 188 199 174 161 182 182 193 202 158 3 263 283 305 131 252 294 282 162 344 298 38 20 352 2 88 136 134
164 147 141 145 157 150 157 175 187 192 169 173 188 187 168 170 182 201 175 169 194 203 141 126 128 150 11 38 295 150 239 230 262 166 193 80 81 67 53 354 148 136 117
170 166 161 163 175 175 183 192 200 197 159 171 186 175 164 173 186 170 182 178 187 159 156 169 177 176 130 86 47 17 7 359 297 269 202 139 133 119 96 70 62 105 140
29 28 218 202 186 187 188 207 205 196 196 174 178 163 169 166 163 163 185 190 176 187 178 198 174 186 160 135 91 39 20 4 336 318 290 339 120 161 130 104 91 82 67
7 16 343 335 253 208 202 202 201 198 199 183 186 172 172 171 169 178 191 177 178 182 178 196 194 200 116 131 134 54 12 355 350 332 331 29 178 75 94 170 167 154 153
25 351 340 313 301 292 247 206 211 185 196 189 194 175 177 174 176 189 176 174 165 164 157 180 177 217 141 153 148 161 182 341 317 301 17 41 40 74 63 347 138 145 148
26 3 335 296 296 334 277 283 219 188 194 195 202 194 180 181 179 180 187 157 163 144 187 166 181 172 144 174 154 165 171 157 349 346 298 99 107 45 30 348 345 178 169
354 10 346 327 339 334 338 291 255 218 218 200 201 211 185 170 172 177 167 150 174 170 171 153 155 158 172 173 166 163 172 188 146 133 2 257 164 152 86 56 355 353 321
356 348 328 329 328 331 333 338 323 291 253 233 226 209 183 169 156 164 165 171 159 156 145 175 184 184 157 136 170 164 194 173 240 121 70 345 155 172 186 185 122 315 328
348 332 327 326 327 328 344 330 19 16 57 16 334 263 160 111 112 159 174 153 147 201 184 177 199 119 149 146 147 169 186 178 231 263 151 160 163 192 210 229 213 269 257
356 346 335 331 335 331 3 49 61 181 122 123 232 215 63 83 126 139 140 192 198 211 120 103 142 136 153 138 151 160 180 203 205 235 211 207 191 208 237 253 215 228 229
17 358 343 335 333 338 315 114 133 134 186 171 177 177 160 158 174 146 191 222 40 46 191 212 75 61 88 85 81 95 108 101 108 321 317 248 208 236 216 225 220 203 220
34 17 12 13 4 12 22 13 316 187 193 179 180 182 165 163 178 157 124 358 96 144 118 109 106 61 100 124 106 103 104 107 115 170 267 259 264 280 281 313 308 312 207